{"data":{"norad_id":41948,"intl_designator":"2017-008A","name":"CARTOSAT-2D","alt_names":[],"object_type":"PAYLOAD","status":"ACTIVE","operator":null,"country":"IND","launch_date":"2017-02-15","launch_site_code":"SRILR","launch_vehicle":null,"mission":null,"orbit_class":"UNKNOWN","rcs_meters":2.2262,"size_class":null,"mass_kg":null,"dimensions":null,"purposes":["earth_obs"],"wikipedia_slug":null,"has_3d_model":false,"image_url":null,"decayed_at":null,"tle_current":{"epoch":"2026-09-20T04:46:42.748032Z","epoch_age_seconds":44306,"freshness":"FRESH","line1":"1 41948U 17008A   26263.19910588  .00001397  00000+0  69524-4 0  9991","line2":"2 41948  97.4010 320.6757 0003391 276.3007  83.7842 15.19237363532002","mean_motion":15.19237363,"eccentricity":0.0003391,"inclination_deg":97.401,"raan_deg":320.6757,"arg_perigee_deg":276.3007,"mean_anomaly_deg":83.7842,"bstar":6.9524e-5,"rev_number":53200,"period_min":94.784398743095,"perigee_km":505.8090600399,"apogee_km":510.47933594838,"semimajor_km":6886.2811979941,"source":"CELESTRAK","updated_at":"2026-09-20T09:00:33.969559Z"}}}